Location: Antin
(43.3330°N, 0.2804°E)
Time: 09:55:45
(UTC+00:00)

Daily predictions for brighter satellites

Satellite Brightness Start Highest point End
(mag) Time Altitude Azimuth Time Altitude Azimuth Time Altitude Azimuth
Cosmos 1697 Rocket 2.8 17:34:54 10° S 17:40:25 57° ESE 17:45:58 10° NNE
Cosmos 1125 Rocket 4.0 17:35:51 10° SSE 17:40:41 38° ESE 17:45:31 10° NE
SME Rocket 4.3 17:39:23 10° N 17:43:13 51° WNW 17:48:12 10° SSW
Cosmos 1908 4.3 17:41:25 10° SE 17:44:35 24° E 17:47:46 10° NE
Cosmos 1607 4.5 17:41:31 10° NNW 17:47:26 40° NE 17:53:13 10° ESE
Cosmos 1356 3.4 17:45:27 10° N 17:48:47 54° ENE 17:52:05 10° SSE
Meteor 1-24 Rocket 4.3 17:44:04 10° NNW 17:49:44 69° W 17:55:34 10° S
Cosmos 2227 Rocket 2.3 17:44:44 10° NNW 17:50:27 89° ENE 17:56:06 10° SSE
Iridium 4 Rocket 4.5 17:49:28 10° NNE 17:52:36 19° ENE 17:55:52 10° ESE
Cosmos 494 Rocket 4.2 17:48:24 10° N 17:53:31 51° ENE 17:58:32 10° SE
Landsat 5 3.8 17:50:14 10° NNE 17:54:28 51° E 17:58:47 10° S
MOS 1-B Rocket 4.4 17:49:51 10° NNE 17:56:36 49° E 18:02:26 10° S
CZ-2C R/B 2.9 17:51:22 10° NNE 17:56:50 50° E 18:02:12 10° S
Timation 2 Rocket 4.2 17:50:23 10° NNW 17:57:19 76° ENE 18:04:02 10° SSE
Cosmos 1726 3.7 17:54:03 10° SSW 17:57:26 38° WNW 18:00:51 10° N
SKYMED 2 3.6 17:53:09 10° NNE 17:57:27 58° E 18:01:43 10° S
Aureole 2 4.3 17:56:20 10° NNW 17:59:17 73° WSW 18:02:25 10° SSE
Cosmos 1470 3.8 17:55:32 10° SSW 17:59:24 51° W 18:03:18 10° N
Okean O Rocket 1.5 17:57:14 10° SSE 18:01:31 64° ENE 18:05:50 10° N
Cosmos 2084 Rocket 4.3 17:58:02 10° WSW 18:01:45 44° NW 18:05:30 10° NNE
Cosmos 1758 3.4 18:02:16 10° S 18:06:16 79° W 18:10:15 10° N
CZ-4 R/B 2.2 18:04:23 10° SE 18:07:49 30° ENE 18:11:21 10° N
YAOGAN 1 3.3 18:04:45 10° SE 18:08:36 32° ENE 18:12:28 10° N
Cosmos 1703 3.9 18:05:13 10° N 18:08:49 34° ENE 18:12:24 10° SE
SL-16 R/B 3.8 18:06:44 10° ESE 18:08:50 13° E 18:08:50 13° E
Okean-O 3.9 18:07:42 12° ESE 18:10:24 21° ENE 18:13:42 10° NNE
Cosmos 1455 Rocket 3.6 18:08:50 10° SSE 18:12:49 35° E 18:16:52 10° NNE
Cosmos 2082 3.6 18:10:00 10° NNW 18:15:38 72° ENE 18:21:14 10° SSE
Spot 2 4.0 18:12:51 10° SSE 18:16:47 52° ENE 18:20:51 10° N
Cosmos 1953 2.4 18:12:59 10° S 18:16:55 53° E 18:20:53 10° NNE
Cosmos 2150 Rocket 4.1 18:14:44 10° SSW 18:20:11 86° WNW 18:25:38 10° NNE
H-2A R/B 2.7 18:17:02 10° NE 18:20:38 29° E 18:24:16 10° SSE
Cosmos 1727 Rocket 4.1 18:15:11 10° N 18:21:26 82° W 18:27:35 10° S
Okean 1-7 Rocket 4.5 18:18:26 10° NNE 18:22:12 27° ENE 18:24:34 17° ESE
Meteor 1-21 Rocket 4.3 18:18:36 10° N 18:24:26 68° ENE 18:30:19 10° SSE
Cosmos 1544 Rocket 4.4 18:22:17 10° SSE 18:26:06 29° E 18:29:57 10° NNE
H-2A R/B 2.9 18:25:26 10° S 18:30:38 56° W 18:35:59 10° NNW
ATLAS 3B R/B 3.2 18:27:06 10° SW 18:33:31 57° NW 18:40:16 10° NNE
Cosmos 1300 3.8 18:30:56 10° SSE 18:38:01 - NNE 18:33:11 25° ESE
Cosmos 405 Rocket 2.7 18:34:36 10° N 18:38:30 58° ENE 18:42:25 10° SSE
CZ-4B R/B 4.3 18:34:20 10° S 18:39:46 49° W 18:45:16 10° NNW
ATLAS 5 CENTAUR R/B 1.3 18:39:53 10° SSW 18:43:40 61° ESE 18:45:39 28° NE
COSMO-SKYMED 1 3.9 18:41:24 10° N 18:45:30 42° WNW 18:49:35 10° SW
NOSS 3-1 (C) 4.2 18:44:35 10° SSE 18:47:41 24° SE 18:47:41 24° SE
Cosmos 2369 4.3 18:45:55 10° SW 18:51:29 59° WNW 18:57:06 10° NNE
Feng Yun 1-1 Rocket 4.4 18:46:06 10° S 18:51:33 75° WSW 18:57:12 10° NNW
HJ-1C 3.1 18:51:07 37° SSE 18:52:16 82° E 18:55:32 10° N
SL-8 R/B 4.0 18:48:05 10° SW 18:52:40 47° SE 18:53:45 39° ESE
Cosmos 2227 4.5 18:47:28 10° NNW 18:53:02 47° ENE 18:55:04 33° ESE
IRS-1C Rocket 4.0 18:50:35 10° SSE 18:55:48 72° ENE 19:01:04 10° N
Cosmos 1605 Rocket 4.2 18:50:39 10° SSE 18:56:31 47° E 19:02:31 10° NNE
H-2A R/B 3.1 18:52:16 10° S 18:56:38 60° WSW 19:00:55 10° NNW
SL-08 RB Rocket 4.1 18:55:08 10° S 18:59:35 64° W 19:04:08 10° NNW
Cosmos 1892 Rocket 4.1 18:55:13 10° NNW 18:59:38 60° W 19:03:59 10° S
Cosmos 1535 Rocket 4.4 18:55:03 10° S 19:01:12 71° E 19:07:30 10° NNE
Cosmos 1980 Rocket 2.7 19:00:04 10° SW 19:05:38 59° WNW 19:11:16 10° NNE
X-37B 1.2 19:05:30 10° W 19:08:08 56° W 19:08:08 56° W
Cosmos 489 Rocket 4.3 19:03:07 10° NNW 19:09:21 84° ENE 19:13:45 21° SSE
Cosmos 2263 Rocket 2.0 19:04:54 10° NNW 19:10:30 79° ENE 19:12:46 37° SE
CSL-04 Debris 4.0 19:08:41 29° SSE 19:11:30 71° ENE 19:16:53 10° N
Cosmos 1269 Rocket 3.9 19:07:09 10° NNW 19:12:29 81° ENE 19:14:31 39° SSE
CZ-2C R/B 3.4 19:14:58 10° SSW 19:15:35 13° SSW 19:15:35 13° SSW
Cosmos 724 4.1 19:19:45 10° NNW 19:25:44 81° ENE 19:26:54 59° SE
Cosmos 1626 Rocket 3.8 19:24:39 10° N 19:28:11 59° NNW 19:28:11 59° NNW
Cosmos 371 Rocket 3.3 19:24:45 10° SSW 19:28:53 65° S 19:28:53 65° S
CSL-04 Rocket 3.6 19:30:11 41° S 19:32:15 85° WSW 19:37:51 10° NNW
Iridium 4 Rocket 4.4 19:28:34 10° NNW 19:32:41 41° W 19:37:06 10° SSW
MetOp-A 4.3 19:31:02 27° S 19:34:01 71° WSW 19:39:23 10° NNW
Gbstr 26 Del rocket 4.4 19:34:41 10° WNW 19:42:14 88° NNE 19:43:59 60° ESE
CZ-4 R/B 3.8 19:39:45 10° SW 19:42:50 22° W 19:45:58 10° NW
Cosmos 1844 Rocket 4.0 19:41:20 10° N 19:44:20 26° NNE 19:44:20 26° NNE
Okean-O 3.8 19:45:17 32° SW 19:46:37 41° W 19:50:49 10° NNW
SL-16 R/B 2.7 19:46:47 10° SSW 19:50:51 49° SSW 19:50:51 49° SSW
H-2A R/B 4.2 19:53:11 10° NNW 19:56:29 24° WNW 19:59:48 10° WSW
Cosmos 2322 Rocket 4.4 20:04:50 10° SSW 20:05:21 13° SSW 20:05:21 13° SSW
Cosmos 2344 4.2 20:04:25 10° NW 20:13:44 78° NE 20:15:56 63° ESE
Lacrosse 4 Rocket 4.2 20:11:44 10° NNW 20:12:21 14° NNW 20:12:21 14° NNW
ATLAS 5 CENTAUR R/B 4.2 20:25:48 10° W 20:27:13 16° WNW 20:27:13 16° WNW
